DIERAUER Weather Reports


time (UTC)temp
C
wind
direction
speed
KPH
gust
KPH
rain 1hr
cm
rain 24hr
cm
rain mn
cm
humidity
%
barometer
mb
20260903060015 23 215 4.8 8.0 0.00 0.00 0.00 85 1017.0
20260903054518 23 219 4.8 8.0 0.00 0.00 0.00 85 1016.9
20260903053016 23 219 4.8 8.0 0.00 0.00 0.00 85 1016.9
20260903051532 23 209 4.8 8.0 0.00 0.00 0.00 85 1016.9
20260903050018 24 217 4.8 8.0 0.00 0.00 0.00 85 1016.6
20260903044519 24 209 4.8 8.0 0.00 0.00 0.00 84 1016.5
20260903043027 24 210 4.8 8.0 0.00 0.00 0.00 85 1016.5
20260903041518 24 205 4.8 6.4 0.00 0.00 0.00 85 1016.4
20260903040015 24 215 3.2 4.8 0.00 0.00 0.00 85 1016.4
20260903034510 24 222 3.2 4.8 0.00 0.00 0.00 85 1016.5
20260903033028 25 213 3.2 6.4 0.00 0.00 0.00 84 1016.6
20260903031539 25 224 3.2 4.8 0.00 0.00 0.00 85 1016.6
20260903030027 25 213 3.2 6.4 0.00 0.00 0.00 84 1016.8
20260903024510 25 225 3.2 4.8 0.00 0.00 0.00 83 1016.8
20260903023034 25 209 3.2 4.8 0.00 0.00 0.00 83 1017.0
20260903021542 25 202 3.2 4.8 0.00 0.00 0.00 84 1017.0
20260903020035 25 217 3.2 3.2 0.00 0.00 0.00 83 1017.0
20260903014542 26 214 3.2 4.8 0.00 0.00 0.00 82 1017.0
20260903013018 26 233 3.2 4.8 0.00 0.00 0.00 82 1016.8
20260903011538 26 196 3.2 6.4 0.00 0.00 0.00 82 1016.7
20260903010006 26 217 3.2 6.4 0.00 0.00 0.00 83 1016.6
20260903004507 26 222 1.6 3.2 0.00 0.00 0.00 83 1016.5
20260903003019 26 203 3.2 4.8 0.00 0.00 0.00 82 1016.4
20260903001515 26 202 3.2 3.2 0.00 0.00 0.00 81 1016.4
20260903000014 27 223 0.0 3.2 0.00 0.00 0.00 79 1016.4
20260902234510 28 207 1.6 6.4 0.00 0.00 0.00 74 1016.3
20260902233006 29 225 3.2 6.4 0.00 0.00 0.00 71 1016.4
20260902231504 30 227 3.2 6.4 0.00 0.00 0.00 70 1016.4
20260902230026 30 198 4.8 8.0 0.00 0.00 0.00 67 1016.4
20260902224522 31 221 4.8 11.3 0.00 0.00 0.00 64 1016.5
20260902223019 31 221 3.2 11.3 0.00 0.00 0.00 63 1016.4
20260902221517 31 254 4.8 11.3 0.00 0.00 0.00 62 1016.5
20260902220043 31 225 6.4 11.3 0.00 0.00 0.00 60 1016.6
20260902214546 32 200 6.4 14.5 0.00 0.00 0.00 57 1016.6
20260902213030 32 257 4.8 16.1 0.00 0.00 0.00 58 1016.6
20260902211535 32 219 8.0 16.1 0.00 0.00 0.00 56 1016.7
20260902210036 32 223 8.0 16.1 0.00 0.00 0.00 57 1016.8
20260902204527 32 212 4.8 16.1 0.00 0.00 0.00 58 1017.0
20260902203038 32 234 9.7 17.7 0.00 0.00 0.00 59 1017.1
20260902201541 32 259 4.8 19.3 0.00 0.00 0.00 58 1017.2
20260902200033 32 248 12.9 19.3 0.00 0.00 0.00 56 1017.3
20260902194529 32 260 3.2 14.5 0.00 0.00 0.00 57 1017.4
20260902193028 32 225 3.2 16.1 0.00 0.00 0.00 58 1017.6
20260902191533 32 228 6.4 20.9 0.00 0.00 0.00 57 1017.8
20260902190020 32 244 4.8 16.1 0.00 0.00 0.00 61 1018.0
20260902184522 32 249 9.7 16.1 0.00 0.00 0.00 59 1018.0
20260902183012 32 238 8.0 16.1 0.00 0.00 0.00 62 1018.1
20260902181508 32 235 6.4 17.7 0.00 0.00 0.00 59 1018.2
20260902180036 32 229 9.7 20.9 0.00 0.00 0.00 63 1018.4
20260902174506 31 194 6.4 19.3 0.00 0.00 0.00 61 1018.5
20260902173013 31 211 9.7 16.1 0.00 0.00 0.00 62 1018.6
20260902171507 31 184 11.3 16.1 0.00 0.00 0.00 64 1018.9
20260902170032 31 236 4.8 17.7 0.00 0.00 0.00 68 1018.9
20260902164515 31 246 6.4 14.5 0.00 0.00 0.00 66 1018.8
20260902163012 31 212 6.4 12.9 0.00 0.00 0.00 66 1019.0
20260902161505 31 271 1.6 8.0 0.00 0.00 0.00 70 1019.0
20260902160009 30 251 6.4 9.7 0.00 0.00 0.00 70 1019.2
20260902154522 30 250 3.2 11.3 0.00 0.00 0.00 70 1019.2
20260902153035 29 243 3.2 12.9 0.00 0.00 0.00 72 1019.3
20260902151523 29 318 6.4 12.9 0.00 0.00 0.00 71 1019.4
20260902150007 28 200 3.2 14.5 0.00 0.00 0.00 74 1019.3
20260902144515 28 229 6.4 14.5 0.00 0.00 0.00 74 1019.3
20260902143009 28 275 4.8 12.9 0.00 0.00 0.00 74 1019.3
20260902141509 27 209 4.8 11.3 0.00 0.00 0.00 78 1019.2
20260902140030 27 249 3.2 16.1 0.00 0.00 0.00 79 1019.1
20260902134508 27 251 4.8 11.3 0.00 0.00 0.00 78 1019.2
20260902133017 26 241 4.8 11.3 0.00 0.00 0.00 79 1019.1
20260902131517 26 236 8.0 14.5 0.00 0.00 0.00 81 1019.1
20260902130015 25 240 8.0 16.1 0.00 0.00 0.00 83 1019.0
20260902124508 24 235 8.0 11.3 0.00 0.00 0.00 85 1018.9
20260902123010 23 229 6.4 11.3 0.00 0.00 0.00 86 1018.7
20260902121518 22 213 6.4 9.7 0.00 0.00 0.00 88 1018.7
20260902120034 22 216 4.8 8.0 0.00 0.00 0.00 89 1018.7
20260902114537 22 229 4.8 9.7 0.00 0.00 0.00 90 1018.6
20260902113011 22 214 4.8 8.0 0.00 0.00 0.00 90 1018.5
20260902111519 22 222 4.8 9.7 0.00 0.00 0.00 89 1018.3
20260902110013 22 200 4.8 9.7 0.00 0.00 0.00 89 1018.3
20260902104529 22 201 4.8 8.0 0.00 0.00 0.00 89 1018.3
20260902103033 22 212 4.8 8.0 0.00 0.00 0.00 89 1018.3
20260902101518 22 227 4.8 8.0 0.00 0.00 0.00 89 1018.4
20260902100022 22 209 3.2 6.4 0.00 0.00 0.00 89 1018.4
20260902094524 22 211 3.2 6.4 0.00 0.00 0.00 90 1018.3
20260902093020 21 209 3.2 4.8 0.00 0.00 0.00 90 1018.3
20260902091520 21 229 3.2 3.2 0.00 0.00 0.00 92 1018.2
20260902090023 21 200 1.6 3.2 0.00 0.00 0.00 92 1018.2
20260902084526 21 200 1.6 3.2 0.00 0.00 0.00 92 1018.1
20260902083028 21 200 1.6 3.2 0.00 0.00 0.00 91 1018.0
20260902081528 21 190 3.2 4.8 0.00 0.00 0.00 90 1017.9
20260902080024 22 201 3.2 4.8 0.00 0.00 0.00 89 1017.7
20260902074520 22 215 3.2 4.8 0.00 0.00 0.00 88 1017.7
20260902073020 23 223 3.2 6.4 0.00 0.00 0.00 86 1017.6
20260902071534 22 215 4.8 8.0 0.00 0.00 0.00 87 1017.5
20260902070041 23 215 3.2 6.4 0.00 0.00 0.00 86 1017.4
20260902064843 23 246 3.2 6.4 0.00 0.00 0.00 85 1017.4
20260902063029 23 232 3.2 6.4 0.00 0.00 0.00 85 1017.5
20260902061528 23 240 4.8 9.7 0.00 0.00 0.00 85 1017.5